Waarnemingen

Advertentie
Mijn weer
Vichy, Frankrijk (7374): temperatuur & dauwpunt: 12.09.2019 11:00:00 - 18.09.2019 11:00:00 (CEST)Vichy, Frankrijk (7374): temperatuur 5cm: 12.09.2019 11:00:00 - 18.09.2019 11:00:00 (CEST)Vichy, Frankrijk (7374): windsnelheid & windstoten: 12.09.2019 11:00:00 - 18.09.2019 11:00:00 (CEST)Vichy, Frankrijk (7374): windrichting: 12.09.2019 11:00:00 - 18.09.2019 11:00:00 (CEST)Vichy, Frankrijk (7374): luchtdruk: 12.09.2019 11:00:00 - 18.09.2019 11:00:00 (CEST)Vichy, Frankrijk (7374): zicht: 12.09.2019 11:00:00 - 18.09.2019 11:00:00 (CEST)Vichy, Frankrijk (7374): Zonneschijnduur: 12.09.2019 11:00:00 - 18.09.2019 11:00:00 (CEST)Vichy, Frankrijk (7374): neerslag: 12.09.2019 11:00:00 - 18.09.2019 11:00:00 (CEST)
Datum & Tijd tt [°C] td [°C] tt 5cm [°C] ff [km/u] ff [kn] fx [km/u] fx [kn] dd ppp [hPa] vv [km] sd [min] rr [mm]
18.09.2019 11:00:00 15,4 8,8 16,9 8 5 20 11 N 1020,0 20 0 0,0
18.09.2019 10:00:00 15,1 9,0 15,9 13 7 21 11 N 1020,0 20 0 0,0
18.09.2019 09:00:00 14,4 9,0 14,0 10 6 21 12 N 1019,6 20 0 0,0
18.09.2019 08:00:00 14,1 9,1 13,6 10 5 15 8 N 1019,4 20 0 0,0
18.09.2019 07:00:00 14,6 9,4 13,8 8 4 14 7 N 1019,0 20 0 0,0
18.09.2019 06:00:00 15,3 9,6 14,0 9 5 20 11 N 1018,8 20 0 0,0
18.09.2019 05:00:00 14,8 10,0 14,1 9 5 17 9 N 1018,9 20 0 0,0
18.09.2019 04:00:00 15,5 10,0 14,4 6 4 13 7 NNW 1018,6 20 0 0,0
18.09.2019 03:00:00 15,9 10,4 14,7 6 3 16 9 NNW 1018,7 20 0 0,0
18.09.2019 02:00:00 16,1 11,0 14,0 8 4 14 8 N 1018,9 20 0 0,0
18.09.2019 01:00:00 16,2 11,4 14,3 8 4 15 8 N 1018,7 20 0 0,0
18.09.2019 00:00:00 17,1 11,8 15,1 6 4 16 9 N 1018,6 20 0 0,0
17.09.2019 23:00:00 18,5 12,0 16,9 7 4 19 10 N 1018,6 20 0 0,0
17.09.2019 22:00:00 20,2 12,4 18,9 15 8 30 16 N 1018,0 20 0 0,0
17.09.2019 21:00:00 21,8 12,9 20,5 18 10 34 18 N 1017,4 20 0 0,0
17.09.2019 20:00:00 24,6 9,3 22,9 10 6 25 13 N 1016,1 20 26 0,0
17.09.2019 19:00:00 27,4 4,4 29,7 15 8 25 13 N 1015,6 20 60 0,0
17.09.2019 18:00:00 28,5 3,3 33,2 16 9 28 15 NNO 1015,7 20 60 0,0
17.09.2019 17:00:00 28,7 3,5 35,4 14 7 25 14 N 1015,9 20 60 0,0
17.09.2019 16:00:00 28,3 3,2 35,4 15 8 27 15 NNO 1016,4 20 60 0,0
17.09.2019 15:00:00 28,0 4,3 35,7 15 8 25 14 N 1016,9 20 60 0,0
17.09.2019 14:00:00 27,7 5,9 36,0 12 6 24 13 N 1017,4 20 60 0,0
17.09.2019 13:00:00 26,1 8,1 33,6 7 4 18 10 NNO 1018,0 20 60 0,0
17.09.2019 12:00:00 23,8 8,6 32,1 8 4 15 8 N 1019,0 20 60 0,0
17.09.2019 11:00:00 23,0 9,0 26,8 2 1 7 4 OZO 1019,3 20 60 0,0
17.09.2019 10:00:00 19,2 8,2 21,9 2 1 6 3 NNO 1019,9 20 60 0,0
17.09.2019 09:00:00 15,4 9,3 12,0 0 0 4 2 N 1019,6 20 60 0,0
17.09.2019 08:00:00 10,7 7,6 8,4 0 0 2 1 N 1020,0 20 12 0,0
17.09.2019 07:00:00 10,6 7,7 8,6 0 0 2 1 N 1019,8 20 0 0,0
17.09.2019 06:00:00 10,9 7,6 8,7 0 0 3 2 N 1019,7 20 0 0,0
17.09.2019 05:00:00 12,3 8,2 9,9 3 2 4 2 WNW 1019,4 20 0 0,0
17.09.2019 04:00:00 12,9 8,8 10,6 0 0 4 2 N 1019,4 20 0 0,0
17.09.2019 03:00:00 14,2 8,8 12,3 0 0 4 2 N 1019,5 20 0 0,0
17.09.2019 02:00:00 14,5 9,5 12,1 0 0 4 2 N 1019,5 20 0 0,0
17.09.2019 01:00:00 16,1 9,7 13,5 0 0 4 2 N 1019,4 20 0 0,0
17.09.2019 00:00:00 17,3 10,4 15,1 0 0 3 2 N 1019,2 20 0 0,0
16.09.2019 23:00:00 18,9 10,5 15,5 0 0 5 3 N 1018,9 20 0 0,0
16.09.2019 22:00:00 21,8 10,9 17,0 4 2 8 5 N 1018,1 20 0 0,0
16.09.2019 21:00:00 24,7 12,6 21,5 6 3 16 9 NNO 1017,5 20 0 0,0
16.09.2019 20:00:00 28,3 11,4 25,6 6 3 15 8 N 1016,6 20 34 0,0
16.09.2019 19:00:00 30,9 11,3 33,2 10 5 20 11 N 1015,9 20 60 0,0
16.09.2019 18:00:00 32,0 11,2 37,4 9 5 31 17 NNO 1015,9 20 60 0,0
16.09.2019 17:00:00 32,2 10,8 38,8 10 6 19 11 NNO 1016,3 20 60 0,0
16.09.2019 16:00:00 32,0 10,7 39,1 10 6 19 10 N 1016,8 20 60 0,0
16.09.2019 15:00:00 31,4 10,7 38,9 6 4 18 10 NNO 1017,5 19 60 0,0
16.09.2019 14:00:00 30,3 10,8 37,5 11 6 19 10 NO 1018,2 20 60 0,0
16.09.2019 13:00:00 28,8 11,4 36,1 9 5 18 10 NO 1019,1 20 60 0,0
16.09.2019 12:00:00 28,0 11,9 34,1 6 4 14 7 ONO 1019,7 20 60 0,0
16.09.2019 11:00:00 25,6 13,1 28,9 6 3 14 8 ZZO 1020,2 20 60 0,0
16.09.2019 10:00:00 21,8 13,4 24,2 10 5 13 7 ZZO 1020,3 20 60 0,0
16.09.2019 09:00:00 18,2 13,5 15,0 7 4 12 6 Z 1020,5 20 60 0,0
16.09.2019 08:00:00 13,8 12,0 11,0 5 3 10 6 Z 1020,9 20 13 0,0
16.09.2019 07:00:00 13,3 11,0 11,7 0 0 5 3 N 1021,0 20 0 0,0
16.09.2019 06:00:00 13,6 10,9 12,2 0 0 6 3 N 1020,7 20 0 0,0
16.09.2019 05:00:00 13,7 11,0 12,1 3 1 4 2 W 1020,7 20 0 0,0
16.09.2019 04:00:00 14,6 11,0 12,5 0 0 10 5 N 1020,9 20 0 0,0
16.09.2019 03:00:00 15,0 11,2 12,8 4 2 7 4 ZZW 1021,0 20 0 0,0
16.09.2019 02:00:00 16,0 11,8 14,1 0 0 7 4 N 1021,1 20 0 0,0
16.09.2019 01:00:00 16,9 12,2 14,6 0 0 3 1 N 1021,0 20 0 0,0
16.09.2019 00:00:00 17,1 12,2 14,9 0 0 3 1 N 1021,0 20 0 0,0
15.09.2019 23:00:00 18,5 12,5 16,2 0 0 3 2 N 1020,8 20 0 0,0
15.09.2019 22:00:00 20,5 12,5 18,0 0 0 4 2 N 1020,5 20 0 0,0
15.09.2019 21:00:00 23,2 12,5 20,5 0 0 7 4 N 1019,9 20 0 0,0
15.09.2019 20:00:00 27,4 11,8 24,2 6 3 14 8 NNO 1019,0 20 36 0,0
15.09.2019 19:00:00 30,9 11,3 32,5 11 6 18 10 NNO 1018,8 20 60 0,0
15.09.2019 18:00:00 32,1 10,2 37,1 8 4 18 10 N 1018,8 20 60 0,0
15.09.2019 17:00:00 32,7 10,7 39,0 3 2 16 9 NNW 1019,3 20 60 0,0
15.09.2019 16:00:00 32,5 10,5 39,0 8 4 23 12 NNO 1019,9 20 60 0,0
15.09.2019 15:00:00 32,4 9,8 40,2 3 2 14 8 OZO 1020,5 20 60 0,0
15.09.2019 14:00:00 31,2 9,4 38,9 6 3 14 8 ZZO 1021,5 20 60 0,0
15.09.2019 13:00:00 29,7 11,2 35,0 5 3 13 7 O 1022,2 20 60 0,0
15.09.2019 12:00:00 26,6 14,4 32,3 9 5 16 8 ZO 1023,1 20 60 0,0
15.09.2019 11:00:00 23,5 14,2 27,2 6 4 15 8 ZO 1023,9 20 60 0,0
15.09.2019 10:00:00 20,7 14,3 22,8 9 5 15 8 ZZO 1024,4 20 60 0,0
15.09.2019 09:00:00 17,0 14,1 13,5 8 4 12 6 Z 1024,9 20 60 0,0
15.09.2019 08:00:00 12,6 11,8 10,3 5 3 8 4 ZZW 1025,0 20 8 0,0
15.09.2019 07:00:00 11,9 11,0 10,0 2 1 4 2 ZW 1025,2 20 0 0,0
15.09.2019 06:00:00 12,0 10,6 10,2 0 0 2 1 N 1025,0 20 0 0,0
15.09.2019 05:00:00 12,5 10,7 11,0 0 0 3 2 N 1025,2 20 0 0,0
15.09.2019 04:00:00 13,9 11,2 11,5 0 0 8 5 N 1025,0 20 0 0,0
15.09.2019 03:00:00 13,9 11,1 11,9 0 0 4 2 N 1025,0 20 0 0,0
15.09.2019 02:00:00 15,9 11,5 13,6 3 2 9 5 ZW 1025,1 20 0 0,0
15.09.2019 01:00:00 16,5 12,3 14,8 3 2 5 3 Z 1024,9 20 0 0,0
15.09.2019 00:00:00 16,8 12,1 14,2 0 0 5 3 N 1025,1 20 0 0,0
14.09.2019 23:00:00 17,2 11,9 14,7 0 0 2 1 N 1025,2 20 0 0,0
14.09.2019 22:00:00 19,2 12,5 16,5 0 0 6 3 N 1025,2 20 0 0,0
14.09.2019 21:00:00 21,0 12,2 17,8 0 0 3 2 N 1024,7 20 0 0,0
14.09.2019 20:00:00 25,4 11,9 21,7 4 2 11 6 N 1023,8 20 34 0,0
14.09.2019 19:00:00 28,9 11,0 29,6 9 5 13 7 NNO 1023,2 20 41 0,0
14.09.2019 18:00:00 29,6 11,2 31,9 9 5 19 10 NO 1023,1 20 43 0,0
14.09.2019 17:00:00 30,4 10,4 37,7 11 6 16 9 NO 1023,1 20 60 0,0
14.09.2019 16:00:00 30,1 11,1 37,6 5 3 14 8 ONO 1024,1 20 60 0,0
14.09.2019 15:00:00 29,7 11,7 36,9 4 2 13 7 WNW 1024,7 20 60 0,0
14.09.2019 14:00:00 27,6 13,9 34,1 5 3 16 9 WNW 1025,8 20 60 0,0
14.09.2019 13:00:00 25,2 14,0 32,5 6 3 16 9 NNO 1026,5 20 54 0,0
14.09.2019 12:00:00 23,5 13,9 29,0 5 3 11 6 N 1027,4 20 60 0,0
14.09.2019 11:00:00 21,1 13,5 25,7 2 1 9 5 Z 1028,3 20 56 0,0
14.09.2019 10:00:00 19,5 13,4 21,9 2 1 7 4 NO 1028,6 20 60 0,0
14.09.2019 09:00:00 15,0 12,9 12,3 5 3 7 4 N 1029,0 20 23 0,0
14.09.2019 08:00:00 11,7 11,1 8,8 3 2 6 3 Z 1029,0 20 11 0,0
14.09.2019 07:00:00 11,0 10,4 8,8 0 0 3 2 N 1028,6 20 0 0,0
14.09.2019 06:00:00 11,4 10,6 9,1 0 0 4 2 N 1028,6 20 0 0,0
14.09.2019 05:00:00 12,8 11,7 9,9 0 0 4 2 N 1028,5 20 0 0,0
14.09.2019 04:00:00 14,1 12,3 11,4 0 0 8 4 N 1028,4 20 0 0,0
14.09.2019 03:00:00 17,2 13,3 12,7 3 2 10 5 NNW 1028,3 20 0 0,0
14.09.2019 02:00:00 16,7 13,6 13,0 6 3 12 7 N 1028,7 20 0 0,0
14.09.2019 01:00:00 17,1 13,0 13,0 7 4 11 6 N 1028,5 20 0 0,0
14.09.2019 00:00:00 18,6 13,5 14,2 5 3 12 6 N 1028,4 20 0 0,0
13.09.2019 23:00:00 19,0 13,4 14,7 3 2 9 5 N 1028,5 20 0 0,0
13.09.2019 22:00:00 22,6 13,1 20,0 6 3 11 6 N 1027,7 20 0 0,0
13.09.2019 21:00:00 24,7 12,9 21,4 6 4 15 8 NO 1027,2 20 0 0,0
13.09.2019 20:00:00 26,7 12,7 25,0 6 4 19 11 NO 1027,0 20 35 0,0
13.09.2019 19:00:00 29,3 12,3 31,7 11 6 23 13 ONO 1026,7 20 60 0,0
13.09.2019 18:00:00 29,6 12,1 34,4 16 9 27 15 NO 1026,4 20 60 0,0
13.09.2019 17:00:00 29,9 11,9 35,1 18 10 26 14 NO 1026,7 20 60 0,0
13.09.2019 16:00:00 29,3 11,4 34,4 13 7 26 14 ONO 1027,5 20 60 0,0
13.09.2019 15:00:00 29,0 11,1 35,5 15 8 31 17 NNO 1028,1 20 60 0,0
13.09.2019 14:00:00 28,1 12,0 36,1 15 8 29 16 NNO 1028,7 20 60 0,0
13.09.2019 13:00:00 26,5 11,0 33,8 9 5 18 10 NNO 1029,5 20 60 0,0
13.09.2019 12:00:00 23,6 10,3 31,5 5 3 13 7 N 1030,3 20 60 0,0
13.09.2019 11:00:00 20,9 9,2 26,4 2 1 11 6 ZZW 1031,3 20 60 0,0
13.09.2019 10:00:00 17,3 9,5 21,2 4 2 11 6 ZZO 1032,0 20 60 0,0
13.09.2019 09:00:00 13,6 9,2 12,8 5 3 10 5 Z 1032,3 20 60 0,0
13.09.2019 08:00:00 9,0 7,1 5,2 0 0 10 5 N 1032,6 20 17 0,0
13.09.2019 07:00:00 7,7 6,0 5,4 0 0 7 4 N 1032,6 20 0 0,0
13.09.2019 06:00:00 7,8 5,9 5,7 0 0 3 1 N 1032,3 20 0 0,0
13.09.2019 05:00:00 8,5 5,9 6,2 0 0 4 2 N 1032,1 20 0 0,0
13.09.2019 04:00:00 10,5 6,8 7,1 3 2 10 5 ZZW 1032,0 20 0 0,0
13.09.2019 03:00:00 9,5 6,4 6,9 0 0 0 0 N 1031,7 20 0 0,0
13.09.2019 02:00:00 10,5 6,6 7,8 0 0 0 0 N 1031,7 20 0 0,0
13.09.2019 01:00:00 11,6 6,5 8,2 0 0 3 1 N 1031,6 20 0 0,0
13.09.2019 00:00:00 12,5 6,5 9,5 0 0 3 2 N 1031,8 20 0 0,0
12.09.2019 23:00:00 13,6 6,9 9,8 0 0 3 2 N 1031,8 20 0 0,0
12.09.2019 22:00:00 15,1 7,1 11,1 0 0 3 1 N 1031,2 20 0 0,0
12.09.2019 21:00:00 16,8 6,9 14,2 0 0 3 2 N 1030,7 20 0 0,0
12.09.2019 20:00:00 23,0 5,0 18,5 0 0 14 8 N 1029,7 20 39 0,0
12.09.2019 19:00:00 26,7 4,4 30,5 9 5 16 9 NO 1029,2 20 60 0,0
12.09.2019 18:00:00 27,4 3,8 32,2 9 5 18 10 NO 1029,2 20 60 0,0
12.09.2019 17:00:00 27,7 2,0 34,4 6 4 20 11 N 1029,4 20 60 0,0
12.09.2019 16:00:00 27,3 2,4 34,5 5 3 19 10 NNO 1029,9 20 60 0,0
12.09.2019 15:00:00 25,9 3,2 33,1 6 3 21 12 O 1030,3 20 60 0,0
12.09.2019 14:00:00 24,9 5,1 33,3 6 3 16 9 N 1031,0 20 60 0,0
12.09.2019 13:00:00 23,5 6,3 31,2 8 5 14 8 NO 1031,3 20 60 0,0
12.09.2019 12:00:00 21,9 6,9 28,0 4 2 11 6 NO 1032,0 20 60 0,0
12.09.2019 11:00:00 19,6 8,0 24,3 8 4 14 7 ZZO 1032,1 20 60 0,0

tt = temperatuur
td = dauwpunt
tt 5cm = temperatuur 5cm
ff = windsnelheid
fx = windstoten
dd = windrichting
ppp = luchtdruk
vv = zicht
sd = Zonneschijnduur
rr = neerslag

Weerstations in de omgeving